CCA4405 ZUUU-ZULS

Flight info

Callsign CCA4405
Flight time 1h 49m
Altitude 34100
Route MUMGO B213 LXA
Aircraft A339/H-SDE3FGHIRWY/LB1

Departure

Time 2026-05-05 21:12
Airport Chengdu Shuangliu International Airport (ZUUU)

Arrival

Time 2026-05-05 23:02
Airport Lhasa Gonggar International Airport (ZULS)
Time Latitude Longitude Altitude Speed Heading
2026-05-05 21:00 30.56361 103.94605 1698 ft 0 kts 203°
2026-05-05 21:03 30.56362 103.94606 1698 ft 1 kts 204°
2026-05-05 21:03 30.56375 103.94613 1698 ft 2 kts 203°
2026-05-05 21:03 30.56389 103.94620 1698 ft 2 kts 209°
2026-05-05 21:03 30.56401 103.94630 1698 ft 2 kts 226°
2026-05-05 21:04 30.56411 103.94643 1698 ft 2 kts 239°
2026-05-05 21:04 30.56417 103.94659 1698 ft 2 kts 253°
2026-05-05 21:04 30.56420 103.94675 1698 ft 2 kts 266°
2026-05-05 21:04 30.56420 103.94693 1698 ft 2 kts 280°
2026-05-05 21:05 30.56416 103.94707 1698 ft 0 kts 292°
2026-05-05 21:05 30.56415 103.94712 1698 ft 0 kts 294°
2026-05-05 21:07 30.56416 103.94708 1698 ft 1 kts 294°
2026-05-05 21:07 30.56424 103.94687 1698 ft 3 kts 294°
2026-05-05 21:08 30.56437 103.94653 1698 ft 5 kts 292°
2026-05-05 21:08 30.56453 103.94604 1698 ft 7 kts 291°
2026-05-05 21:08 30.56471 103.94552 1698 ft 7 kts 291°
2026-05-05 21:08 30.56491 103.94492 1698 ft 8 kts 291°
2026-05-05 21:09 30.56506 103.94425 1698 ft 8 kts 258°
2026-05-05 21:09 30.56464 103.94378 1698 ft 9 kts 200°
2026-05-05 21:09 30.56399 103.94349 1698 ft 10 kts 203°
2026-05-05 21:09 30.56325 103.94312 1698 ft 11 kts 203°
2026-05-05 21:10 30.56273 103.94254 1698 ft 11 kts 268°
2026-05-05 21:10 30.56295 103.94178 1698 ft 7 kts 291°
2026-05-05 21:10 30.56310 103.94137 1698 ft 5 kts 292°
2026-05-05 21:10 30.56327 103.94089 1698 ft 7 kts 295°
2026-05-05 21:11 30.56351 103.94035 1698 ft 7 kts 306°
2026-05-05 21:11 30.56401 103.94027 1698 ft 8 kts 16°
2026-05-05 21:11 30.56496 103.94068 1698 ft 33 kts 21°
2026-05-05 21:11 30.56967 103.94286 1698 ft 109 kts 22°
2026-05-05 21:12 30.57873 103.94707 1711 ft 168 kts 21°
2026-05-05 21:12 30.58980 103.95219 2338 ft 172 kts 21°
2026-05-05 21:12 30.60077 103.95679 3177 ft 168 kts 10°
2026-05-05 21:12 30.61206 103.95557 3842 ft 168 kts 348°
2026-05-05 21:13 30.62348 103.95076 4157 ft 185 kts 340°
2026-05-05 21:13 30.63588 103.94434 4479 ft 203 kts 338°
2026-05-05 21:13 30.64911 103.93712 4806 ft 221 kts 336°
2026-05-05 21:13 30.66369 103.92897 5177 ft 239 kts 336°
2026-05-05 21:14 30.67921 103.92022 5553 ft 257 kts 335°
2026-05-05 21:14 30.69565 103.91091 5978 ft 272 kts 335°
2026-05-05 21:14 30.71269 103.90125 6632 ft 276 kts 335°
2026-05-05 21:14 30.73012 103.89120 7349 ft 280 kts 331°
2026-05-05 21:15 30.74450 103.87639 7963 ft 286 kts 303°
2026-05-05 21:15 30.75139 103.85476 8634 ft 289 kts 275°
2026-05-05 21:15 30.74907 103.83193 9329 ft 292 kts 249°
2026-05-05 21:15 30.73816 103.81206 10024 ft 292 kts 229°
2026-05-05 21:16 30.72479 103.79427 10605 ft 298 kts 229°
2026-05-05 21:16 30.71090 103.77544 10892 ft 315 kts 230°
2026-05-05 21:16 30.69640 103.75556 11170 ft 332 kts 230°
2026-05-05 21:16 30.68111 103.73443 11463 ft 348 kts 230°
2026-05-05 21:17 30.66548 103.71249 11888 ft 358 kts 234°
2026-05-05 21:17 30.65652 103.69378 12297 ft 361 kts 251°
2026-05-05 21:17 30.65287 103.67558 12725 ft 362 kts 264°
2026-05-05 21:17 30.65451 103.64665 13400 ft 364 kts 283°
2026-05-05 21:18 30.66155 103.61861 14020 ft 365 kts 286°
2026-05-05 21:18 30.66867 103.59001 14662 ft 368 kts 286°
2026-05-05 21:18 30.67566 103.56146 15268 ft 370 kts 286°
2026-05-05 21:18 30.68265 103.53272 15810 ft 373 kts 286°
2026-05-05 21:19 30.68965 103.50384 16362 ft 375 kts 286°
2026-05-05 21:19 30.69664 103.47491 16907 ft 377 kts 286°
2026-05-05 21:19 30.70370 103.44564 17492 ft 378 kts 287°
2026-05-05 21:19 30.71087 103.41589 18084 ft 380 kts 287°
2026-05-05 21:20 30.71793 103.38661 18657 ft 383 kts 287°
2026-05-05 21:20 30.72512 103.35668 19180 ft 386 kts 286°
2026-05-05 21:20 30.73233 103.32663 19695 ft 389 kts 286°
2026-05-05 21:20 30.73958 103.29634 20262 ft 391 kts 286°
2026-05-05 21:21 30.74690 103.26576 20840 ft 392 kts 286°
2026-05-05 21:21 30.75415 103.23547 21392 ft 394 kts 286°
2026-05-05 21:21 30.76154 103.20454 21932 ft 396 kts 286°
2026-05-05 21:21 30.76888 103.17374 22448 ft 399 kts 285°
2026-05-05 21:22 30.77625 103.14277 22951 ft 401 kts 286°
2026-05-05 21:22 30.78373 103.11137 23407 ft 404 kts 285°
2026-05-05 21:22 30.79123 103.07986 23865 ft 407 kts 285°
2026-05-05 21:22 30.79816 103.04827 24334 ft 410 kts 282°
2026-05-05 21:23 30.80283 103.01556 24790 ft 413 kts 277°
2026-05-05 21:23 30.80499 102.98205 25254 ft 416 kts 272°
2026-05-05 21:23 30.80494 102.94852 25702 ft 419 kts 270°
2026-05-05 21:23 30.80440 102.91477 26149 ft 421 kts 269°
2026-05-05 21:24 30.80376 102.88049 26592 ft 424 kts 269°
2026-05-05 21:24 30.80311 102.84632 26989 ft 427 kts 269°
2026-05-05 21:24 30.80247 102.81192 27411 ft 430 kts 269°
2026-05-05 21:24 30.80183 102.77695 27802 ft 433 kts 269°
2026-05-05 21:25 30.80117 102.74191 28206 ft 435 kts 269°
2026-05-05 21:25 30.80052 102.70696 28624 ft 437 kts 269°
2026-05-05 21:25 30.79984 102.67147 29025 ft 439 kts 269°
2026-05-05 21:25 30.79916 102.63609 29418 ft 441 kts 269°
2026-05-05 21:26 30.79845 102.60029 29781 ft 444 kts 268°
2026-05-05 21:26 30.79771 102.56448 30149 ft 447 kts 268°
2026-05-05 21:26 30.79696 102.52828 30514 ft 449 kts 268°
2026-05-05 21:26 30.79620 102.49211 30942 ft 449 kts 268°
2026-05-05 21:27 30.79545 102.45615 31506 ft 447 kts 268°
2026-05-05 21:27 30.79470 102.42042 32038 ft 444 kts 268°
2026-05-05 21:27 30.79394 102.38462 32531 ft 442 kts 268°
2026-05-05 21:27 30.79318 102.34972 32987 ft 441 kts 268°
2026-05-05 21:28 30.79238 102.31308 33397 ft 442 kts 268°
2026-05-05 21:28 30.79159 102.27784 33790 ft 442 kts 268°
2026-05-05 21:28 30.79077 102.24201 34207 ft 441 kts 268°
2026-05-05 21:28 30.78997 102.20680 34501 ft 440 kts 268°
2026-05-05 21:29 30.78833 102.13573 34474 ft 439 kts 268°
2026-05-05 21:29 30.78667 102.06493 34434 ft 439 kts 268°
2026-05-05 21:30 30.78497 101.99416 34421 ft 439 kts 268°
2026-05-05 21:30 30.78362 101.92371 34430 ft 439 kts 270°
2026-05-05 21:31 30.78693 101.85286 34440 ft 439 kts 274°
2026-05-05 21:31 30.79273 101.78234 34470 ft 439 kts 275°
2026-05-05 21:32 30.79859 101.71178 34543 ft 439 kts 275°
2026-05-05 21:32 30.80442 101.64142 34574 ft 438 kts 275°
2026-05-05 21:33 30.81017 101.57107 34607 ft 437 kts 275°
2026-05-05 21:33 30.81584 101.50123 34636 ft 436 kts 275°
2026-05-05 21:34 30.82151 101.43114 34666 ft 437 kts 275°
2026-05-05 21:34 30.82715 101.36086 34663 ft 438 kts 275°
2026-05-05 21:35 30.83274 101.29066 34658 ft 438 kts 274°
2026-05-05 21:35 30.83832 101.22026 34646 ft 438 kts 274°
2026-05-05 21:36 30.84384 101.15007 34644 ft 437 kts 274°
2026-05-05 21:36 30.84934 101.07985 34632 ft 437 kts 274°
2026-05-05 21:37 30.85480 101.00944 34623 ft 437 kts 274°
2026-05-05 21:37 30.86020 100.93926 34620 ft 437 kts 274°
2026-05-05 21:38 30.86554 100.86919 34636 ft 436 kts 274°
2026-05-05 21:38 30.87089 100.79877 34642 ft 436 kts 274°
2026-05-05 21:39 30.87619 100.72868 34657 ft 437 kts 274°
2026-05-05 21:39 30.88143 100.65824 34650 ft 437 kts 274°
2026-05-05 21:40 30.88667 100.58795 34656 ft 437 kts 274°
2026-05-05 21:40 30.89183 100.51803 34663 ft 436 kts 274°
2026-05-05 21:41 30.89696 100.44774 34674 ft 435 kts 274°
2026-05-05 21:41 30.90204 100.37764 34670 ft 435 kts 274°
2026-05-05 21:42 30.90712 100.30756 34669 ft 435 kts 273°
2026-05-05 21:42 30.91215 100.23717 34670 ft 435 kts 273°
2026-05-05 21:43 30.91711 100.16745 34673 ft 435 kts 273°
2026-05-05 21:43 30.92205 100.09717 34707 ft 435 kts 273°
2026-05-05 21:44 30.92691 100.02764 34734 ft 434 kts 274°
2026-05-05 21:44 30.93209 99.95737 34744 ft 434 kts 274°
2026-05-05 21:45 30.93767 99.88783 34741 ft 435 kts 274°
2026-05-05 21:45 30.94327 99.81748 34733 ft 435 kts 274°
2026-05-05 21:46 30.94876 99.74773 34717 ft 434 kts 274°
2026-05-05 21:46 30.95419 99.67778 34718 ft 434 kts 274°
2026-05-05 21:47 30.95959 99.60808 34724 ft 435 kts 274°
2026-05-05 21:47 30.96496 99.53805 34731 ft 436 kts 274°
2026-05-05 21:48 30.97033 99.46777 34733 ft 437 kts 274°
2026-05-05 21:48 30.97567 99.39735 34704 ft 437 kts 274°
2026-05-05 21:49 30.98097 99.32672 34681 ft 437 kts 274°
2026-05-05 21:49 30.98620 99.25661 34666 ft 436 kts 274°
2026-05-05 21:50 30.99143 99.18623 34665 ft 436 kts 274°
2026-05-05 21:50 30.99657 99.11601 34653 ft 437 kts 274°
2026-05-05 21:51 31.00171 99.04559 34653 ft 437 kts 274°
2026-05-05 21:51 31.00680 98.97555 34680 ft 437 kts 274°
2026-05-05 21:52 31.01442 98.86958 34666 ft 438 kts 274°
2026-05-05 21:53 31.01942 98.79920 34675 ft 438 kts 274°
2026-05-05 21:53 31.02441 98.72858 34679 ft 438 kts 274°
2026-05-05 21:54 31.02935 98.65807 34686 ft 438 kts 274°
2026-05-05 21:54 31.03511 98.58763 34694 ft 438 kts 275°
2026-05-05 21:55 31.04108 98.51706 34723 ft 437 kts 274°
2026-05-05 21:55 31.04689 98.44702 34749 ft 436 kts 275°
2026-05-05 21:56 31.05266 98.37707 34743 ft 436 kts 274°
2026-05-05 21:56 31.05842 98.30657 34725 ft 436 kts 274°
2026-05-05 21:57 31.06414 98.23600 34727 ft 438 kts 274°
2026-05-05 21:57 31.06981 98.16561 34728 ft 439 kts 274°
2026-05-05 21:58 31.07543 98.09493 34743 ft 437 kts 274°
2026-05-05 21:58 31.08098 98.02480 34743 ft 438 kts 274°
2026-05-05 21:59 31.08653 97.95424 34755 ft 438 kts 274°
2026-05-05 21:59 31.09202 97.88361 34762 ft 438 kts 274°
2026-05-05 22:00 31.09752 97.81278 34760 ft 438 kts 274°
2026-05-05 22:00 31.10296 97.74228 34762 ft 437 kts 274°
2026-05-05 22:01 31.10826 97.67289 34767 ft 438 kts 274°
2026-05-05 22:01 31.11350 97.60381 34760 ft 437 kts 274°
2026-05-05 22:02 31.11879 97.53358 34757 ft 438 kts 274°
2026-05-05 22:02 31.12410 97.46268 34750 ft 438 kts 274°
2026-05-05 22:03 31.12938 97.39195 34744 ft 438 kts 274°
2026-05-05 22:03 31.13450 97.32217 34732 ft 439 kts 274°
2026-05-05 22:04 31.13858 97.25283 34741 ft 437 kts 270°
2026-05-05 22:04 31.13716 97.18187 34744 ft 436 kts 265°
2026-05-05 22:05 31.12974 97.11192 34749 ft 437 kts 260°
2026-05-05 22:05 31.11671 97.04325 34752 ft 437 kts 256°
2026-05-05 22:06 31.10214 96.97431 34736 ft 437 kts 256°
2026-05-05 22:06 31.08755 96.90578 34754 ft 437 kts 256°
2026-05-05 22:07 31.07294 96.83741 34764 ft 438 kts 256°
2026-05-05 22:07 31.05812 96.76826 34762 ft 438 kts 256°
2026-05-05 22:08 31.04342 96.69986 34768 ft 438 kts 256°
2026-05-05 22:08 31.02853 96.63068 34771 ft 439 kts 256°
2026-05-05 22:09 31.01371 96.56207 34781 ft 439 kts 256°
2026-05-05 22:09 30.99883 96.49335 34768 ft 439 kts 256°
2026-05-05 22:10 30.98386 96.42441 34781 ft 438 kts 256°
2026-05-05 22:10 30.96921 96.35571 34782 ft 439 kts 256°
2026-05-05 22:11 30.95532 96.28995 34768 ft 438 kts 256°
2026-05-05 22:11 30.94094 96.22205 34775 ft 440 kts 256°
2026-05-05 22:12 30.92625 96.15298 34764 ft 440 kts 256°
2026-05-05 22:12 30.91156 96.08408 34769 ft 440 kts 256°
2026-05-05 22:13 30.89683 96.01517 34765 ft 441 kts 256°
2026-05-05 22:13 30.88305 95.95086 34764 ft 440 kts 256°
2026-05-05 22:14 30.86881 95.88451 34755 ft 440 kts 256°
2026-05-05 22:14 30.85394 95.81536 34757 ft 441 kts 255°
2026-05-05 22:15 30.83901 95.74628 34748 ft 440 kts 255°
2026-05-05 22:15 30.82450 95.67736 34743 ft 441 kts 256°
2026-05-05 22:16 30.81034 95.60848 34735 ft 441 kts 256°
2026-05-05 22:16 30.79598 95.53896 34724 ft 440 kts 256°
2026-05-05 22:17 30.78169 95.46997 34730 ft 441 kts 256°
2026-05-05 22:17 30.76734 95.40093 34728 ft 440 kts 256°
2026-05-05 22:18 30.75298 95.33212 34745 ft 439 kts 256°
2026-05-05 22:18 30.73903 95.26540 34752 ft 440 kts 256°
2026-05-05 22:19 30.72490 95.19797 34750 ft 440 kts 256°
2026-05-05 22:19 30.71044 95.12926 34750 ft 440 kts 256°
2026-05-05 22:20 30.69589 95.06028 34753 ft 440 kts 256°
2026-05-05 22:20 30.68131 94.99129 34757 ft 440 kts 256°
2026-05-05 22:21 30.66671 94.92252 34766 ft 439 kts 256°
2026-05-05 22:21 30.65218 94.85418 34784 ft 439 kts 256°
2026-05-05 22:22 30.63754 94.78538 34781 ft 438 kts 256°
2026-05-05 22:22 30.62285 94.71676 34783 ft 438 kts 255°
2026-05-05 22:23 30.60823 94.64854 34787 ft 439 kts 256°
2026-05-05 22:23 30.59346 94.57990 34770 ft 440 kts 255°
2026-05-05 22:24 30.57870 94.51150 34749 ft 438 kts 256°
2026-05-05 22:24 30.56387 94.44284 34753 ft 439 kts 256°
2026-05-05 22:25 30.54905 94.37447 34780 ft 439 kts 256°
2026-05-05 22:25 30.53421 94.30606 34810 ft 437 kts 255°
2026-05-05 22:26 30.51962 94.23894 34848 ft 439 kts 255°
2026-05-05 22:26 30.50520 94.17237 34835 ft 438 kts 256°
2026-05-05 22:27 30.49105 94.10410 34804 ft 439 kts 256°
2026-05-05 22:27 30.47676 94.03516 34791 ft 441 kts 256°
2026-05-05 22:28 30.46244 93.96631 34800 ft 440 kts 256°
2026-05-05 22:28 30.44809 93.89760 34792 ft 440 kts 256°
2026-05-05 22:29 30.43370 93.82893 34801 ft 440 kts 256°
2026-05-05 22:29 30.41929 93.76025 34835 ft 440 kts 256°
2026-05-05 22:30 30.40490 93.69186 34841 ft 440 kts 256°
2026-05-05 22:30 30.39026 93.62312 34848 ft 441 kts 255°
2026-05-05 22:31 30.37173 93.55589 34861 ft 440 kts 251°
2026-05-05 22:31 30.35116 93.48922 34884 ft 441 kts 251°
2026-05-05 22:32 30.33055 93.42252 34861 ft 441 kts 251°
2026-05-05 22:32 30.30993 93.35604 34869 ft 440 kts 251°
2026-05-05 22:33 30.29067 93.29396 34850 ft 440 kts 250°
2026-05-05 22:33 30.27112 93.23109 34857 ft 441 kts 250°
2026-05-05 22:34 30.25041 93.16460 34838 ft 441 kts 250°
2026-05-05 22:34 30.22960 93.09795 34852 ft 443 kts 250°
2026-05-05 22:35 30.20877 93.03129 34861 ft 442 kts 250°
2026-05-05 22:35 30.18782 92.96453 34850 ft 441 kts 250°
2026-05-05 22:36 30.16690 92.89806 34851 ft 441 kts 251°
2026-05-05 22:36 30.14604 92.83170 34861 ft 442 kts 250°
2026-05-05 22:37 30.12504 92.76510 34842 ft 442 kts 251°
2026-05-05 22:37 30.10410 92.69867 34525 ft 442 kts 251°
2026-05-05 22:37 30.09355 92.66527 34277 ft 441 kts 251°
2026-05-05 22:38 30.08321 92.63254 34029 ft 441 kts 250°
2026-05-05 22:38 30.07263 92.59917 33777 ft 441 kts 250°
2026-05-05 22:38 30.06210 92.56587 33526 ft 443 kts 250°
2026-05-05 22:38 30.05169 92.53254 33271 ft 446 kts 251°
2026-05-05 22:39 30.04131 92.49916 33020 ft 447 kts 250°
2026-05-05 22:39 30.03076 92.46524 32764 ft 448 kts 251°
2026-05-05 22:39 30.02026 92.43153 32503 ft 451 kts 250°
2026-05-05 22:39 30.00963 92.39744 32237 ft 452 kts 251°
2026-05-05 22:40 29.99900 92.36340 31972 ft 453 kts 251°
2026-05-05 22:40 29.98866 92.33030 31722 ft 454 kts 250°
2026-05-05 22:40 29.97913 92.29983 31480 ft 456 kts 250°
2026-05-05 22:40 29.96850 92.26585 31229 ft 456 kts 250°
2026-05-05 22:41 29.95828 92.23325 30978 ft 457 kts 250°
2026-05-05 22:41 29.94747 92.19875 30721 ft 458 kts 250°
2026-05-05 22:41 29.93660 92.16413 30418 ft 457 kts 250°
2026-05-05 22:41 29.92587 92.12999 30099 ft 455 kts 250°
2026-05-05 22:42 29.91516 92.09595 29825 ft 454 kts 250°
2026-05-05 22:42 29.90442 92.06181 29443 ft 453 kts 250°
2026-05-05 22:42 29.89369 92.02774 29023 ft 450 kts 250°
2026-05-05 22:42 29.88310 91.99414 28613 ft 446 kts 250°
2026-05-05 22:43 29.87263 91.96095 28219 ft 443 kts 250°
2026-05-05 22:43 29.86419 91.93423 27893 ft 440 kts 250°
2026-05-05 22:43 29.85406 91.90215 27504 ft 437 kts 250°
2026-05-05 22:43 29.84433 91.87141 27132 ft 434 kts 250°
2026-05-05 22:44 29.83411 91.83917 26740 ft 430 kts 250°
2026-05-05 22:44 29.82391 91.80690 26352 ft 427 kts 250°
2026-05-05 22:44 29.81392 91.77498 25968 ft 423 kts 250°
2026-05-05 22:44 29.80407 91.74341 25575 ft 420 kts 250°
2026-05-05 22:45 29.79420 91.71179 25171 ft 417 kts 250°
2026-05-05 22:45 29.78442 91.68049 24765 ft 414 kts 250°
2026-05-05 22:45 29.77470 91.64938 24362 ft 411 kts 250°
2026-05-05 22:45 29.76509 91.61867 23920 ft 405 kts 250°
2026-05-05 22:46 29.75566 91.58854 23521 ft 397 kts 250°
2026-05-05 22:46 29.74652 91.55940 23149 ft 385 kts 250°
2026-05-05 22:46 29.73768 91.53125 23078 ft 365 kts 250°
2026-05-05 22:46 29.72926 91.50448 23045 ft 346 kts 250°
2026-05-05 22:47 29.72126 91.47893 22883 ft 341 kts 251°
2026-05-05 22:47 29.71332 91.45348 22616 ft 337 kts 251°
2026-05-05 22:47 29.70542 91.42812 22299 ft 337 kts 251°
2026-05-05 22:47 29.69755 91.40286 22024 ft 334 kts 251°
2026-05-05 22:48 29.68970 91.37772 21952 ft 334 kts 251°
2026-05-05 22:48 29.68192 91.35284 21954 ft 322 kts 251°
2026-05-05 22:48 29.67469 91.32974 21959 ft 311 kts 250°
2026-05-05 22:48 29.66813 91.30740 21928 ft 307 kts 253°
2026-05-05 22:49 29.66282 91.28506 21687 ft 309 kts 256°
2026-05-05 22:49 29.65882 91.26302 21509 ft 307 kts 259°
2026-05-05 22:49 29.65576 91.23912 21271 ft 306 kts 263°
2026-05-05 22:49 29.65402 91.21495 21013 ft 305 kts 266°
2026-05-05 22:50 29.65359 91.19088 20819 ft 301 kts 270°
2026-05-05 22:50 29.65442 91.16686 20594 ft 298 kts 272°
2026-05-05 22:50 29.65483 91.14329 20335 ft 296 kts 266°
2026-05-05 22:50 29.65286 91.11993 20067 ft 295 kts 259°
2026-05-05 22:51 29.64804 91.09687 19781 ft 294 kts 251°
2026-05-05 22:51 29.64064 91.07536 19447 ft 293 kts 243°
2026-05-05 22:51 29.63060 91.05505 19094 ft 293 kts 235°
2026-05-05 22:51 29.61828 91.03665 18751 ft 291 kts 227°
2026-05-05 22:52 29.60386 91.02037 18406 ft 290 kts 219°
2026-05-05 22:52 29.58770 91.00658 18029 ft 290 kts 211°
2026-05-05 22:52 29.57000 90.99548 17796 ft 284 kts 204°
2026-05-05 22:52 29.55233 90.98634 17452 ft 276 kts 203°
2026-05-05 22:53 29.53499 90.97762 17244 ft 261 kts 203°
2026-05-05 22:53 29.51915 90.96967 17226 ft 244 kts 203°
2026-05-05 22:53 29.50360 90.96184 17239 ft 243 kts 203°
2026-05-05 22:53 29.48839 90.95418 17311 ft 232 kts 203°
2026-05-05 22:54 29.47409 90.94697 17279 ft 220 kts 203°
2026-05-05 22:54 29.45999 90.93985 17244 ft 219 kts 203°
2026-05-05 22:54 29.44604 90.93282 17218 ft 218 kts 203°
2026-05-05 22:54 29.43210 90.92577 17213 ft 218 kts 203°
2026-05-05 22:55 29.41832 90.91882 17170 ft 214 kts 203°
2026-05-05 22:55 29.40492 90.91145 17131 ft 214 kts 210°
2026-05-05 22:55 29.39323 90.90125 17005 ft 210 kts 223°
2026-05-05 22:55 29.38405 90.88854 16684 ft 206 kts 236°
2026-05-05 22:56 29.37778 90.87411 16444 ft 198 kts 249°
2026-05-05 22:56 29.37457 90.85949 16369 ft 185 kts 261°
2026-05-05 22:56 29.37358 90.84477 16356 ft 185 kts 265°
2026-05-05 22:56 29.37268 90.82983 16254 ft 187 kts 263°
2026-05-05 22:57 29.37124 90.81519 15949 ft 185 kts 260°
2026-05-05 22:57 29.36912 90.80080 15668 ft 183 kts 257°
2026-05-05 22:57 29.36631 90.78653 15407 ft 185 kts 253°
2026-05-05 22:57 29.36233 90.77256 15104 ft 185 kts 240°
2026-05-05 22:58 29.35449 90.76115 14810 ft 182 kts 218°
2026-05-05 22:58 29.34366 90.75374 14615 ft 180 kts 197°
2026-05-05 22:58 29.33138 90.75172 14414 ft 179 kts 175°
2026-05-05 22:58 29.31923 90.75465 14171 ft 179 kts 156°
2026-05-05 22:59 29.30895 90.76234 13945 ft 178 kts 134°
2026-05-05 22:59 29.30178 90.77394 13777 ft 178 kts 113°
2026-05-05 22:59 29.29919 90.78781 13587 ft 180 kts 91°
2026-05-05 22:59 29.29970 90.80209 13373 ft 179 kts 89°
2026-05-05 23:00 29.30025 90.83034 12913 ft 178 kts 90°
2026-05-05 23:00 29.30050 90.84448 12669 ft 177 kts 91°
2026-05-05 23:00 29.30070 90.85860 12420 ft 177 kts 90°
2026-05-05 23:01 29.30090 90.87270 12180 ft 176 kts 90°
2026-05-05 23:01 29.30110 90.88653 11951 ft 176 kts 90°
2026-05-05 23:01 29.30129 90.90022 11882 ft 157 kts 89°
2026-05-05 23:01 29.30145 90.91058 11880 ft 100 kts 89°
2026-05-05 23:02 29.30155 90.91601 11879 ft 49 kts 89°
2026-05-05 23:02 29.30146 90.91859 11879 ft 25 kts 98°
2026-05-05 23:02 29.30094 90.92039 11878 ft 22 kts 118°
2026-05-05 23:02 29.30024 90.92193 11878 ft 20 kts 109°
2026-05-05 23:03 29.30010 90.92341 11878 ft 9 kts 89°
2026-05-05 23:03 29.30010 90.92346 11878 ft 0 kts 89°